Theta_e
295 296 296 296 296 295 295 293 293 294 295 296 297 298 298 298 297 298 299 301 302 303 304 304 305 307 311 311 310 309 308 307
295 296 296 295 295 295 294 293 293 294 295 296 296 297 298 297 298 299 301 302 302 303 303 304 305 307 310 311 310 308 308 307
293 294 294 294 294 294 294 293 293 294 295 296 296 297 296 297 298 301 301 302 302 304 303 304 306 309 311 310 309 308 306 306
291 292 292 294 294 294 293 292 293 293 295 295 295 296 296 298 300 301 300 301 302 304 303 305 306 309 310 310 309 308 308 307
293 291 292 293 294 294 293 292 292 293 294 294 294 296 297 298 300 300 301 300 302 303 304 306 306 309 311 310 309 308 308 308
291 292 293 292 293 294 293 292 292 292 293 294 295 297 297 299 299 300 301 303 303 302 305 306 305 309 310 310 308 309 308 307
290 290 290 287 292 293 290 291 292 292 292 295 295 296 297 298 298 300 301 302 303 303 302 302 303 299 302 307 309 307 306 303
292 291 290 292 293 292 291 291 291 291 292 294 294 295 296 297 299 299 300 300 300 300 300 301 302 297 296 298 306 304 302 300
292 291 291 291 290 292 292 291 290 291 292 293 293 293 294 294 298 298 298 298 298 297 298 299 297 296 297 296 302 300 299 298
292 292 291 289 290 291 290 290 290 290 291 293 294 292 292 294 296 297 296 296 296 295 296 297 295 294 296 299 298 296 294 295
292 291 289 288 289 289 287 288 289 289 289 292 293 293 293 293 292 291 292 290 288 289 291 289 294 295 295 298 296 292 288 289
291 290 288 288 286 286 287 287 288 288 289 289 291 291 294 292 291 290 289 288 288 288 288 289 290 294 296 296 295 290 287 287
289 288 288 286 286 286 286 287 287 287 287 288 289 289 290 290 289 288 288 287 286 286 285 285 288 289 293 295 294 293 289 287
286 285 286 285 284 283 285 285 284 285 285 286 287 286 287 288 287 286 287 287 285 286 285 284 284 286 292 292 292 291 286 287
282 283 284 284 284 283 282 283 283 285 285 285 286 286 286 286 287 288 287 287 286 286 286 284 284 285 286 288 288 287 288 288
281 281 282 283 283 283 284 283 284 284 285 286 286 286 286 286 287 288 288 289 288 288 288 286 285 286 288 287 287 287 287 286
280 280 281 282 282 282 283 284 284 284 285 286 286 286 285 286 285 289 290 291 292 291 289 286 289 289 289 289 289 288 288 286
278 277 277 279 280 280 282 282 283 284 285 286 285 286 286 285 286 286 287 290 291 291 291 290 289 289 289 290 289 288 289 286
274 275 274 276 275 279 283 283 284 284 285 286 286 287 287 287 286 286 286 286 285 289 289 290 290 289 289 289 288 286 286 286
271 273 270 273 278 277 277 283 284 284 285 286 287 287 287 286 286 287 286 286 285 285 287 287 289 289 289 289 286 286 286 286
Wind_Speed
7 8 7 8 7 7 7 7 6 5 4 4 4 2 0 2 2 2 2 1 3 4 6 5 5 4 4 4 5 7 5 5
6 7 8 8 8 7 7 6 6 5 5 4 3 3 2 2 2 3 2 1 3 4 5 4 4 3 3 6 6 8 7 7
6 7 7 7 7 7 7 7 7 6 5 5 5 5 3 4 3 1 4 2 4 2 3 4 3 4 6 6 7 8 8 8
1 5 7 7 7 7 7 7 7 6 6 6 5 4 4 4 2 1 3 3 2 1 2 4 4 3 5 6 6 7 6 8
6 3 5 7 8 7 7 7 7 7 6 6 6 5 5 3 2 0 1 3 2 2 1 1 2 1 6 6 6 6 5 6
5 6 6 4 4 6 7 7 7 7 6 6 6 5 4 4 2 1 1 2 4 2 1 3 2 3 6 7 7 8 7 6
6 7 5 4 6 5 6 7 7 6 6 6 6 6 5 4 4 3 2 3 3 2 2 1 2 6 10 7 7 6 8 8
7 7 6 6 5 7 6 6 6 6 6 6 6 5 6 3 4 3 3 2 2 2 1 2 3 2 8 10 6 7 6 7
6 6 7 7 4 2 5 6 6 6 6 6 5 5 5 4 3 3 2 3 2 1 3 2 2 6 11 10 6 6 6 6
5 6 6 7 6 2 5 5 6 6 7 7 6 6 5 6 4 3 3 2 2 0 2 5 3 5 12 10 6 7 6 5
6 4 5 7 6 5 3 2 6 5 6 6 6 7 5 6 6 2 3 3 3 2 4 3 4 7 4 9 5 6 4 5
6 7 7 7 6 6 2 3 5 4 5 5 5 7 6 5 4 5 4 5 4 4 2 4 2 3 8 9 5 6 4 4
6 6 5 6 5 5 4 5 2 4 5 5 5 4 5 6 3 3 5 5 4 3 2 2 1 2 4 8 6 9 7 6
6 6 5 6 5 4 5 5 1 2 2 2 4 4 4 5 6 2 3 4 3 3 2 2 0 1 6 7 12 10 4 5
3 7 8 7 6 4 4 3 1 1 2 1 3 4 4 3 3 5 4 4 4 4 3 2 1 2 3 5 7 13 10 14
7 6 6 7 7 5 5 2 2 2 2 3 2 3 4 3 4 4 3 5 5 5 5 6 6 6 7 8 7 8 11 12
7 8 9 7 7 6 4 3 2 3 2 3 3 3 2 3 2 4 5 9 7 6 7 3 3 13 12 12 14 18 23 7
7 6 7 7 8 6 4 3 3 4 4 2 3 3 4 3 4 5 2 8 10 11 11 12 8 16 16 15 19 22 11 4
6 7 7 7 6 6 4 4 5 5 7 5 3 3 4 4 4 3 5 4 2 5 6 11 14 17 19 20 18 10 4 4
6 7 5 6 9 7 3 3 4 4 4 4 5 4 5 4 4 4 4 5 3 2 3 6 14 17 20 24 6 10 9 7
Wind_Direction
176 171 158 166 175 171 173 173 176 174 171 177 183 197 290 54 299 305 296 81 34 4 344 6 357 20 85 86 76 84 75 84
184 175 162 161 168 172 168 167 168 176 179 168 165 173 202 201 262 270 290 19 55 33 347 354 343 28 107 101 106 99 103 105
184 167 166 172 172 178 173 172 175 179 177 180 189 182 194 227 227 83 316 360 83 19 342 321 355 10 118 115 118 117 118 114
179 184 183 184 179 188 181 179 172 173 179 176 195 178 205 230 156 120 270 297 99 103 329 3 344 37 111 114 115 116 123 123
334 295 211 194 183 183 184 170 171 171 185 183 182 195 209 197 136 168 344 304 302 142 272 351 330 327 130 129 119 112 115 119
333 322 316 291 206 182 178 168 166 170 189 196 179 182 204 141 175 200 241 270 272 148 184 21 304 170 128 137 133 130 120 108
358 353 327 276 260 213 184 172 159 174 189 189 174 176 175 173 151 206 199 249 240 132 98 9 344 154 137 129 123 118 127 120
359 346 336 317 242 219 193 154 169 169 185 187 175 180 156 187 168 183 202 194 169 124 122 137 105 118 115 116 119 118 113 114
344 336 337 334 320 209 167 158 168 167 179 179 175 173 150 161 178 158 156 156 147 133 119 136 102 143 129 116 107 105 112 123
335 339 354 355 347 48 130 154 164 191 176 183 173 175 189 155 182 157 140 137 102 61 121 136 102 129 136 121 119 115 115 117
360 5 11 358 358 52 73 167 205 215 197 178 173 157 197 164 160 169 124 126 121 87 54 90 134 125 122 125 126 121 123 104
16 32 10 357 6 34 12 237 247 190 203 185 185 161 176 162 150 152 137 126 126 112 62 76 77 140 146 142 138 140 129 127
23 23 11 7 5 9 6 324 263 174 201 189 183 170 154 150 147 150 143 131 130 133 91 22 93 165 185 156 147 152 145 155
15 6 4 5 5 2 335 327 262 144 190 204 157 143 149 152 144 129 148 146 158 161 165 174 289 182 181 170 141 132 105 132
17 24 1 352 349 335 330 331 311 172 153 226 186 153 144 123 162 156 175 174 163 172 183 178 165 163 147 138 124 112 111 120
18 8 354 342 340 337 346 344 304 262 224 160 215 188 163 165 174 198 204 187 182 196 178 178 203 202 181 164 158 148 143 128
3 1 344 349 332 321 326 319 342 304 268 233 188 176 184 169 133 214 216 212 219 188 177 181 206 160 177 176 157 149 148 136
334 321 317 325 323 323 332 313 270 263 265 241 205 201 175 175 193 199 239 228 217 206 196 188 166 170 170 167 153 156 158 148
312 306 292 299 291 300 309 289 282 281 272 257 231 209 195 202 194 184 199 196 214 234 190 194 177 174 163 155 144 158 208 175
283 285 298 298 296 295 291 282 265 274 268 262 259 231 215 197 199 199 203 198 158 111 194 195 181 173 168 166 174 181 175 173